Location: Bad Dürkheim
(49.4618°N, 8.1724°E)
Time: 20:07:55
(UTC+00:00)

SL-4 R/B - Pass Details

Date: 14 June 2025
Orbit: 393 x 546 km, 51.6° (Epoch: 16 July)

Event Time Altitude Azimuth Distance (km) Brightness Sun altitude
Exits shadow 20:47:52 12° 145° (SE) 1,666 3.8 -9.0°
Maximum altitude 20:48:38 13° 133° (SE) 1,633 3.8 -9.1°
Drops below altitude 10° 20:50:28 10° 107° (ESE) 1,796 4.2 -9.3°
Sets 20:53:45 0° 78° (ENE) 2,668 5.3 -9.6°
